This demonstration page uses our WeatherBlox Daily Observations layout. Learn more.

Left ArrowRight Arrow

Hourly Observations for August 1, 2020

Temp ( °F °C ) Dew Point ( °F °C ) Humidity (%) Winds ( mph kmh ) Pressure ( in mb ) Visibility ( mi km ) Precip ( " mm )
12:54 am 00:54 Clear 62 16.7 58 14.4 86 86 NNW 3 6 30.01 1016 9 14.48406 0 0
1:54 am 01:54 Clear 59 15 56 13.3 90 90 N 3 6 30.01 1016 9 14.48406 0 0
2:54 am 02:54 Clear 60 15.6 57 13.9 90 90 Calm 30 1016 9 14.48406 0 0
3:54 am 03:54 Clear 61 16.1 57 13.9 87 87 Calm 30 1016 9 14.48406 0 0
4:54 am 04:54 Clear 61 16.1 57 13.9 87 87 Calm 30 1016 9 14.48406 0 0
5:54 am 05:54 Clear 60 15.6 56 13.3 86 86 Calm 29.99 1016 9 14.48406 0 0
6:54 am 06:54 Sunny 60 15.6 56 13.3 86 86 Calm 30.01 1016 8 12.87472 0 0
7:54 am 07:54 Sunny 63 17.2 58 14.4 84 84 Calm 30.01 1016 8 12.87472 0 0
8:54 am 08:54 Sunny 66 18.9 60 15.6 81 81 Calm 30.01 1016 9 14.48406 0 0
9:54 am 09:54 Sunny 71 21.7 62 16.7 73 73 Calm 30 1016 9 14.48406 0 0
10:54 am 10:54 Sunny 77 25 63 17.2 62 62 WNW 9 15 29.99 1016 9 14.48406 0 0
11:54 am 11:54 Sunny 78 25.6 64 17.8 62 62 NW 8 13 29.99 1016 9 14.48406 0 0
12:54 pm 12:54 Partly Cloudy 83 28.3 64 17.8 53 53 WNW 10 17 29.98 1015 9 14.48406 0 0
1:54 pm 13:54 Sunny 80 26.7 64 17.8 58 58 Calm 29.97 1015 10 16.0934 0 0
2:54 pm 14:54 Mostly Cloudy 82 27.8 67 19.4 60 60 N 6 9 29.95 1014 10 16.0934 0.001 0.001
3:44 pm 15:44 Partly Cloudy with Thunderstorms 82 27.8 67 19.4 60 60 N 8 13 29.9 1013 9 14.48406 0 0
3:54 pm 15:54 Mostly Cloudy with Nearby Thunderstorms 80 26.7 66 18.9 62 62 N 9 15 29.94 1014 9 14.48406 0 0
4:25 pm 16:25 Partly Cloudy 81 27.2 67 19.4 62 62 VRB 5 7 29.9 1012 10 16.0934 0.001 0.001
4:54 pm 16:54 Sunny 85 29.4 66 18.9 53 53 NNW 15 24 29.92 1013 9 14.48406 0.001 0.001
5:54 pm 17:54 Mostly Sunny 82 27.8 65 18.3 56 56 N 18 30 29.92 1013 9 14.48406 0 0
6:54 pm 18:54 Sunny 81 27.2 64 17.8 57 57 N 16 26 29.93 1013 9 14.48406 0 0
7:54 pm 19:54 Mostly Sunny 79 26.1 65 18.3 62 62 N 14 22 29.94 1014 9 14.48406 0 0
8:54 pm 20:54 Partly Cloudy 74 23.3 65 18.3 74 74 N 8 13 29.96 1015 10 16.0934 0 0
9:54 pm 21:54 Partly Cloudy 74 23.3 64 17.8 71 71 NNW 10 17 29.98 1015 10 16.0934 0 0
10:54 pm 22:54 Partly Cloudy 72 22.2 64 17.8 76 76 NNW 8 13 29.98 1015 10 16.0934 0 0
11:54 pm 23:54 Clear 72 22.2 63 17.2 73 73 NNW 8 13 29.98 1015 10 16.0934 0 0

Powered by AerisWeather